EW3148 Weather Reports


Display with metric or nautical units.
time (UTC)temp
F
wind
direction
speed
MPH
gust
MPH
rain 1hr
in
rain 24hr
in
rain mn
in
humidity
%
barometer
mb
20260901113119 77 234 0.0 4.0 0.00 0.00 0.00 88 1013.0
20260901110947 77 178 0.0 3.0 0.00 0.00 0.00 87 1012.8
20260901105948 77 236 0.0 3.0 0.00 0.00 0.00 87 1012.9
20260901104941 78 234 1.0 5.0 0.00 0.00 0.00 87 1012.9
20260901102758 77 215 1.0 6.0 0.00 0.00 0.00 86 1012.8
20260901101747 77 230 1.0 6.0 0.00 0.00 0.00 86 1012.9
20260901100729 77 194 1.0 5.0 0.00 0.00 0.00 85 1013.0
20260901095744 77 219 2.0 5.0 0.00 0.00 0.00 84 1013.0
20260901093628 78 175 2.0 6.0 0.00 0.00 0.00 83 1013.2
20260901092610 78 194 2.0 5.0 0.00 0.00 0.00 82 1013.2
20260901091557 78 175 2.0 7.0 0.00 0.00 0.00 82 1013.2
20260901090559 78 207 1.0 7.0 0.00 0.00 0.00 82 1013.1
20260901084514 78 210 1.0 5.0 0.00 0.00 0.00 83 1013.0
20260901083536 78 169 1.0 5.0 0.00 0.00 0.00 83 1012.9
20260901082557 79 221 2.0 6.0 0.00 0.00 0.00 82 1013.0
20260901081529 79 191 2.0 6.0 0.00 0.00 0.00 82 1013.0
20260901080536 79 186 2.0 6.0 0.00 0.00 0.00 81 1013.0
20260901075550 79 199 2.0 7.0 0.00 0.00 0.00 81 1013.1
20260901074545 80 167 3.0 7.0 0.00 0.00 0.00 80 1013.0
20260901073553 80 188 2.0 7.0 0.00 0.00 0.00 79 1013.1
20260901072541 80 194 2.0 7.0 0.00 0.00 0.00 78 1013.1
20260901071603 80 200 2.0 6.0 0.00 0.00 0.00 77 1013.2
20260901070617 80 178 2.0 5.0 0.00 0.00 0.00 76 1013.2
20260901065625 81 196 2.0 5.0 0.00 0.00 0.00 75 1013.2
20260901064602 81 161 3.0 8.0 0.00 0.00 0.00 75 1013.1
20260901063547 81 161 3.0 8.0 0.00 0.00 0.00 74 1013.0
20260901062526 81 186 2.0 6.0 0.00 0.00 0.00 73 1012.8
20260901061504 82 169 3.0 8.0 0.00 0.00 0.00 72 1012.7
20260901060506 82 176 3.0 8.0 0.00 0.00 0.00 71 1012.7
20260901055434 82 149 4.0 8.0 0.00 0.00 0.00 70 1012.7
20260901053254 83 206 4.0 9.0 0.00 0.00 0.00 70 1012.6
20260901052236 83 184 4.0 11.0 0.00 0.00 0.00 69 1012.5
20260901051248 84 162 4.0 12.0 0.00 0.00 0.00 69 1012.5
20260901050254 84 226 5.0 12.0 0.00 0.00 0.00 68 1012.5
20260901044111 85 173 4.0 10.0 0.00 0.00 0.00 68 1012.4
20260901043050 85 184 5.0 11.0 0.00 0.00 0.00 67 1012.4
20260901042036 85 139 4.0 11.0 0.00 0.00 0.00 67 1012.4
20260901041021 86 174 4.0 13.0 0.00 0.00 0.00 66 1012.4
20260901040006 86 190 5.0 13.0 0.00 0.00 0.00 66 1012.3
20260901035008 86 172 4.0 12.0 0.00 0.00 0.00 65 1012.3
20260901034026 86 196 5.0 12.0 0.00 0.00 0.00 64 1012.3
20260901033019 86 115 5.0 12.0 0.00 0.00 0.00 62 1012.3
20260901032006 86 128 4.0 10.0 0.00 0.00 0.00 58 1012.2
20260901030947 87 144 4.0 10.0 0.00 0.00 0.00 56 1012.1
20260901025952 87 139 3.0 10.0 0.00 0.00 0.00 52 1011.9
20260901024950 88 146 2.0 9.0 0.00 0.00 0.00 50 1011.8
20260901023932 88 132 0.0 2.0 0.00 0.00 0.00 49 1011.5
20260901022941 88 125 1.0 5.0 0.00 0.00 0.00 48 1011.3
20260901021927 89 139 1.0 6.0 0.00 0.00 0.00 47 1011.3
20260901015743 89 144 0.0 2.0 0.00 0.00 0.00 46 1010.9
20260901014735 90 120 1.0 2.0 0.00 0.00 0.00 46 1010.7
20260901013741 90 116 0.0 2.0 0.00 0.00 0.00 45 1010.7
20260901012724 91 111 0.0 2.0 0.00 0.00 0.00 45 1010.6
20260901011711 92 132 0.0 5.0 0.00 0.00 0.00 44 1010.5
20260901010641 92 109 1.0 5.0 0.00 0.00 0.00 44 1010.4
20260901005622 93 100 1.0 3.0 0.00 0.00 0.00 43 1010.4
20260901004553 94 127 1.0 5.0 0.00 0.00 0.00 43 1010.4
20260901003601 94 170 3.0 6.0 0.00 0.00 0.00 42 1010.4
20260901002608 95 148 3.0 6.0 0.00 0.00 0.00 41 1010.3
20260901001619 95 141 3.0 7.0 0.00 0.00 0.00 41 1010.2
20260901000621 96 155 3.0 10.0 0.00 0.00 0.00 40 1010.2
20260831235607 96 175 2.0 10.0 0.00 0.00 0.00 40 1010.2
20260831234555 97 130 3.0 9.0 0.00 0.00 0.00 39 1010.1
20260831233541 97 94 4.0 9.0 0.00 0.00 0.00 38 1010.2
20260831232535 98 196 2.0 8.0 0.00 0.00 0.00 38 1010.1
20260831231526 98 121 3.0 18.0 0.00 0.00 0.00 39 1010.2
20260831230517 98 192 4.0 18.0 0.00 0.00 0.00 38 1010.3
20260831225515 99 189 4.0 10.0 0.00 0.00 0.00 39 1010.3
20260831224521 99 186 4.0 10.0 0.00 0.00 0.00 38 1010.3
20260831223510 99 153 4.0 10.0 0.00 0.00 0.00 38 1010.3
20260831222517 99 201 3.0 10.0 0.00 0.00 0.00 38 1010.4
20260831221452 99 127 2.0 8.0 0.00 0.00 0.00 37 1010.5
20260831220441 99 98 3.0 9.0 0.00 0.00 0.00 39 1010.6
20260831214315 99 160 4.0 10.0 0.00 0.00 0.00 37 1010.9
20260831213332 100 142 2.0 10.0 0.00 0.00 0.00 38 1010.9
20260831212332 99 200 3.0 11.0 0.00 0.00 0.00 40 1011.0
20260831211304 98 91 4.0 11.0 0.00 0.00 0.00 38 1011.3
20260831210327 99 100 4.0 10.0 0.00 0.00 0.00 39 1011.4
20260831205257 99 203 2.0 12.0 0.00 0.00 0.00 40 1011.6
20260831204240 98 169 3.0 12.0 0.00 0.00 0.00 39 1011.8
20260831203232 98 78 4.0 11.0 0.00 0.00 0.00 39 1011.9
20260831202157 98 216 5.0 14.0 0.00 0.00 0.00 41 1012.2
20260831201143 98 159 4.0 14.0 0.00 0.00 0.00 41 1012.3
20260831200125 98 184 4.0 12.0 0.00 0.00 0.00 40 1012.5
20260831192916 97 123 4.0 13.0 0.00 0.00 0.00 44 1012.9
20260831191918 96 175 4.0 10.0 0.00 0.00 0.00 46 1013.0
20260831190900 96 147 5.0 15.0 0.00 0.00 0.00 47 1013.1
20260831185839 95 182 5.0 11.0 0.00 0.00 0.00 48 1013.3
20260831184805 94 171 3.0 11.0 0.00 0.00 0.00 50 1013.4
20260831182652 94 207 4.0 12.0 0.00 0.00 0.00 51 1013.6
20260831181620 94 97 3.0 9.0 0.00 0.00 0.00 50 1013.6
20260831180617 94 151 3.0 10.0 0.00 0.00 0.00 51 1013.7
20260831175548 94 134 2.0 11.0 0.00 0.00 0.00 52 1013.9
20260831174610 93 235 4.0 11.0 0.00 0.00 0.00 52 1014.0
20260831173541 93 216 3.0 9.0 0.00 0.00 0.00 51 1014.1
20260831172549 93 238 3.0 10.0 0.00 0.00 0.00 53 1014.2
20260831170424 92 180 3.0 10.0 0.00 0.00 0.00 58 1014.4
20260831165407 91 183 4.0 13.0 0.00 0.00 0.00 57 1014.4
20260831164425 91 179 4.0 13.0 0.00 0.00 0.00 58 1014.4
20260831163356 91 202 3.0 9.0 0.00 0.00 0.00 57 1014.4
20260831162356 90 182 3.0 9.0 0.00 0.00 0.00 58 1014.4
20260831161347 89 215 2.0 10.0 0.00 0.00 0.00 64 1014.4
20260831160326 88 192 4.0 12.0 0.00 0.00 0.00 65 1014.3
20260831155333 88 186 3.0 12.0 0.00 0.00 0.00 63 1014.4
20260831154338 88 218 3.0 9.0 0.00 0.00 0.00 65 1014.4
20260831153343 87 186 3.0 10.0 0.00 0.00 0.00 68 1014.2
20260831152335 87 196 4.0 11.0 0.00 0.00 0.00 69 1014.0
20260831151400 87 153 3.0 11.0 0.00 0.00 0.00 71 1014.0
20260831150336 86 164 2.0 11.0 0.00 0.00 0.00 73 1014.0
20260831145352 85 223 4.0 11.0 0.00 0.00 0.00 74 1014.0
20260831144416 84 186 3.0 11.0 0.00 0.00 0.00 77 1013.9
20260831143412 84 151 3.0 11.0 0.00 0.00 0.00 79 1013.8
20260831142345 83 192 3.0 9.0 0.00 0.00 0.00 79 1013.8
20260831141330 82 182 2.0 7.0 0.00 0.00 0.00 82 1013.8
20260831140300 81 232 2.0 7.0 0.00 0.00 0.00 83 1013.5
20260831135226 81 205 2.0 7.0 0.00 0.00 0.00 85 1013.5
20260831134241 80 192 2.0 7.0 0.00 0.00 0.00 87 1013.5
20260831133303 79 198 1.0 6.0 0.00 0.00 0.00 89 1013.4
20260831131054 78 184 1.0 5.0 0.00 0.00 0.00 92 1013.4
20260831130054 77 176 1.0 4.0 0.00 0.00 0.00 92 1013.1
20260831125026 77 194 1.0 5.0 0.00 0.00 0.00 92 1013.1
20260831124029 77 196 2.0 5.0 0.00 0.00 0.00 92 1013.0
20260831123026 77 196 2.0 4.0 0.00 0.00 0.00 91 1013.0
20260831120850 77 188 1.0 4.0 0.00 0.00 0.00 91 1013.0
20260831115856 78 210 1.0 6.0 0.00 0.00 0.00 90 1012.9
20260831114910 78 200 1.0 7.0 0.00 0.00 0.00 90 1012.8